Location: Albany
(42.6526°N, 73.7562°W)
Time: 04:29:06
(UTC+00:00)

Okean-O - Pass Details

Date: 19 November 2019
Orbit: 639 x 641 km, 98.2° (Epoch: 06 December)

Event Time Altitude Azimuth Distance (km) Brightness Sun altitude
Rises 21:53:20 0° 138° (SE) 2,935 5.8 -4.9°
Reaches altitude 10° 21:55:45 10° 128° (SE) 2,030 4.9 -5.3°
Maximum altitude 21:59:34 29° 68° (ENE) 1,169 3.4 -6.0°
Drops below altitude 10° 22:03:24 10° 8° (N) 2,041 4.9 -6.6°
Sets 22:05:49 0° 358° (N) 2,955 5.9 -7.0°
